Location: *
(43.0833°N, 13.0500°E)
Time: 11:55:50
(UTC+00:00)

Cosmos 2263 Rocket - Pass Details

Date: 15 November 2019
Orbit: 825 x 847 km, 71.0° (Epoch: 11 December)

Event Time Altitude Azimuth Distance (km) Brightness Sun altitude
Rises 19:02:47 0° 333° (NNW) 3,372 5.7 -36.2°
Reaches altitude 10° 19:05:14 10° 332° (NNW) 2,434 4.9 -36.6°
Enters shadow 19:06:48 20° 331° (NNW) 1,851 4.2 -36.9°
